Jaipur, India

5:47 PM IST on July 23, 2017 (GMT +0530)
Jaipur

Weather History for VIJP - March, 2014

Change the Weather History Date:

Sunday, March 23, 2014

  Actual Average Record
Temperature  
Mean Temperature 83 °F -  
Max Temperature 95 °F - - ()
Min Temperature 71 °F - - ()
Cooling Degree Days 18    
Growing Degree Days 33 (Base 50)    
Moisture  
Dew Point 53 °F    
Average Humidity 38    
Maximum Humidity 65    
Minimum Humidity 13    
Precipitation  
Precipitation 0.08 in - - ()
Sea Level Pressure  
Sea Level Pressure 29.82 in    
Wind  
Wind Speed 7 mph ()    
Max Wind Speed 30 mph    
Max Gust Speed -    
Visibility 2.2 miles    
Events Rain , Thunderstorm    
T = Trace of Precipitation, MM = Missing Value Source: Averaged Metar Reports

Daily Weather History Graph

Daily Weather History Graph

Search for Another Location

Airport or City:

Trip Planner

Search our weather history database for the weather conditions in past years. The results will help you decide how hot, cold, wet, or windy it might be!

Date:

Astronomy

Mar. 23, 2014 Rise Set
Actual Time 6:27 AM IST 6:39 PM IST
Civil Twilight 6:04 AM IST 7:02 PM IST
Nautical Twilight 5:37 AM IST 7:29 PM IST
Astronomical Twilight 5:10 AM IST 7:56 PM IST
Moon No Moon Rise 11:08 AM IST
Length of Visible Light 12h 57m
Length of Day
12h 11m
Waning Gibbous, 59% of the Moon is Illuminated
Mar 23
Waning Gibbous
Mar 24
Last Quarter
Mar 31
New
Apr 7
First Quarter
Apr 15
Full

Hourly Weather History & Observations

Time (IST) Temp. Heat Index Dew Point Humidity Pressure Visibility Wind Dir Wind Speed Gust Speed Precip Events Conditions
12:00 AM 75.2 °F - 46.4 °F 36% 29.80 in 2.5 mi Calm Calm - N/A   Haze
1:00 AM 77.0 °F - 48.2 °F 36% 29.80 in 2.5 mi ENE 4.6 mph - N/A   Haze
2:00 AM 75.2 °F - 48.2 °F 38% 29.80 in 2.5 mi ESE 4.6 mph - N/A   Haze
2:30 AM 73 °F - 48 °F 30% 29.74 in 2 mi ESE 5.8 mph - -   Haze
3:00 AM 75.2 °F - 48.2 °F 38% 29.80 in 2.5 mi ENE 5.8 mph - N/A   Haze
4:00 AM 73.4 °F - 50.0 °F 44% 29.80 in 2.5 mi East 4.6 mph - N/A   Haze
5:00 AM 75.2 °F - 51.8 °F 44% 29.80 in 2.5 mi East 4.6 mph - N/A   Haze
5:30 AM 73 °F - 51 °F 35% 29.75 in 2 mi East 5.8 mph - -   Haze
6:00 AM 75.2 °F - 51.8 °F 44% 29.80 in 2.5 mi East 6.9 mph - N/A   Haze
7:00 AM 73.4 °F - 51.8 °F 47% 29.83 in 2.5 mi East 8.1 mph - N/A   Haze
8:00 AM 75.2 °F - 53.6 °F 47% 29.86 in 2.2 mi East 9.2 mph - N/A   Haze
8:30 AM 76 °F - 56 °F 39% 29.81 in 1 mi East 11.5 mph - -   Haze
9:00 AM 77.0 °F - 55.4 °F 47% 29.89 in 2.2 mi East 10.4 mph - N/A   Haze
10:00 AM 82.4 °F 81.7 °F 55.4 °F 39% 29.89 in 2.2 mi ESE 9.2 mph - N/A   Haze
11:00 AM 84.2 °F 83.0 °F 55.4 °F 37% 29.92 in 2.5 mi Variable 3.5 mph - N/A   Haze
11:30 AM 86 °F - 56 °F 25% 29.75 in 2 mi ESE 5.8 mph - -   Haze
1:00 PM 89.6 °F - 51.8 °F 27% 29.86 in 3.1 mi ESE 8.1 mph - N/A   Haze
2:00 PM 91.4 °F - 51.8 °F 26% 29.83 in 3.1 mi Variable 10.4 mph - N/A   Haze
2:30 PM 91 °F - 53 °F 18% 29.75 in 2 mi SE 9.2 mph - -   Haze
3:00 PM 91.4 °F - 44.6 °F 20% 29.80 in 3.1 mi SE 8.1 mph - N/A   Haze
4:00 PM 93.2 °F - 46.4 °F 20% 29.80 in 3.1 mi SSW 6.9 mph - N/A   Haze
5:00 PM 93.2 °F - 46.4 °F 20% 29.80 in 3.1 mi SSW 6.9 mph - N/A   Haze
5:30 PM 92 °F - 48 °F 13% 29.70 in 2 mi SE 5.8 mph - -   Haze
6:00 PM 87.8 °F 86.1 °F 55.4 °F 33% 29.80 in 3.1 mi East 13.8 mph - N/A   Haze
7:00 PM 82.4 °F 82.9 °F 60.8 °F 48% 29.83 in 1.2 mi East 12.7 mph - N/A Rain Rain
8:00 PM 78.8 °F - 62.6 °F 57% 29.83 in - East 13.8 mph - N/A   Scattered Clouds
8:30 PM 78 °F - 61 °F 46% 29.76 in 1 mi East 29.9 mph - - Rain Light Drizzle
9:00 PM 77.0 °F - 60.8 °F 57% 29.86 in 1.2 mi East 16.1 mph - N/A Rain Light Rain
10:00 PM 75.2 °F - 62.6 °F 65% 29.89 in 1.2 mi ENE 15.0 mph - N/A Rain , Thunderstorm Light Thunderstorms and Rain
11:00 PM 73.4 °F - 59.0 °F 61% 29.89 in 1.2 mi East 18.4 mph - N/A Rain , Thunderstorm Thunderstorms and Rain
11:30 PM 73 °F - 56 °F 45% 29.83 in 1 mi East 16.1 mph - -   Haze